Find Starlink 4490

NORAD ID: 53409 Int'l Des: 2022-097 Owner: SPXS Country: US Constellation: starlink operational
LEOCIRCULAR

实时位置

正在加载3D地球...

关于 Starlink 4490

正在加载描述...

即将过境

Passes for default location (London). Set your location on the main map for personalized predictions.

高度历史

Loading altitude history...

两行轨道根数

1 53409U 22097X 26121.43398154 .00000668 00000-0 60055-4 0 9990
2 53409 53.2167 227.5367 0001174 83.5741 276.5385 15.08841945206751
Epoch: May 1, 2026 • Age: 7 hours

当前状态

高度 541.0 km
速度 7.59 km/s
星下点 -1.59°S, 75.94°W
发射日期 Aug 10, 2022
运行时间 3.7 years
类型 internet

技术详情

分类 Payload
质量 297.00 kg
干质量 275.00 kg
总质量 297.00 kg
长度 0.20 m
直径 2.80 m
跨度 9.00 m
形状 Box + pan
制造商 SPXS
平台类型 Starlink
阶段状态 In Orbit
所有者/国家 SPXS/US

Most Searched